TimeEDT,TemperatureF,Dew PointF,Humidity,Sea Level PressureIn,VisibilityMPH,Wind Direction,Wind SpeedMPH,Gust SpeedMPH,PrecipitationIn,Events,Conditions,WindDirDegrees,DateUTC
12:33 AM,46.4,42.8,87,29.91,10.0,WSW,8.1,-,N/A,,Overcast,250,2013-10-18 04:33:00
12:56 AM,48.0,43.0,83,29.92,10.0,West,6.9,-,N/A,,Overcast,260,2013-10-18 04:56:00
1:40 AM,46.4,42.8,87,29.92,10.0,West,5.8,-,N/A,,Overcast,260,2013-10-18 05:40:00
1:56 AM,46.9,42.1,83,29.94,10.0,West,6.9,-,N/A,,Overcast,260,2013-10-18 05:56:00
2:56 AM,46.0,42.1,86,29.94,10.0,WSW,6.9,-,N/A,,Mostly Cloudy,250,2013-10-18 06:56:00
3:56 AM,44.1,39.9,85,29.95,10.0,WSW,5.8,-,N/A,,Clear,240,2013-10-18 07:56:00
4:56 AM,42.1,39.9,92,29.96,9.0,SW,3.5,-,N/A,,Clear,220,2013-10-18 08:56:00
5:56 AM,42.1,39.9,92,29.97,8.0,SW,4.6,-,N/A,,Clear,230,2013-10-18 09:56:00
6:56 AM,41.0,39.0,93,29.97,6.0,SW,3.5,-,N/A,,Clear,230,2013-10-18 10:56:00
7:56 AM,41.0,39.0,93,29.99,4.0,SW,4.6,-,N/A,,Clear,220,2013-10-18 11:56:00
8:56 AM,44.1,41.0,89,30.01,5.0,SW,6.9,-,N/A,,Clear,220,2013-10-18 12:56:00
9:56 AM,48.0,43.0,83,30.01,8.0,SW,6.9,-,N/A,,Clear,220,2013-10-18 13:56:00
10:56 AM,53.1,44.1,71,30.02,10.0,SW,9.2,-,N/A,,Clear,220,2013-10-18 14:56:00
11:56 AM,55.9,44.1,64,30.00,10.0,SW,9.2,-,0.00,,Clear,220,2013-10-18 15:56:00
12:56 PM,60.1,43.0,53,29.99,10.0,SW,12.7,18.4,N/A,,Clear,220,2013-10-18 16:56:00
1:56 PM,60.1,41.0,49,29.97,10.0,SW,12.7,21.9,0.00,,Mostly Cloudy,220,2013-10-18 17:56:00
2:56 PM,60.1,39.9,47,29.95,10.0,WSW,12.7,18.4,0.00,,Scattered Clouds,240,2013-10-18 18:56:00
3:56 PM,61.0,42.1,50,29.94,10.0,WSW,9.2,-,N/A,,Mostly Cloudy,240,2013-10-18 19:56:00
4:56 PM,59.0,41.0,51,29.94,10.0,SW,5.8,-,N/A,,Scattered Clouds,220,2013-10-18 20:56:00
5:56 PM,59.0,41.0,51,29.94,10.0,SW,9.2,-,N/A,,Partly Cloudy,220,2013-10-18 21:56:00
6:56 PM,55.0,41.0,59,29.95,10.0,SSW,4.6,-,N/A,,Clear,200,2013-10-18 22:56:00
7:56 PM,52.0,41.0,66,29.96,10.0,SSW,4.6,-,N/A,,Clear,200,2013-10-18 23:56:00
8:56 PM,50.0,41.0,71,29.97,10.0,SSW,6.9,-,N/A,,Clear,200,2013-10-19 00:56:00
9:56 PM,50.0,41.0,71,29.97,10.0,SSW,4.6,-,N/A,,Clear,200,2013-10-19 01:56:00
10:56 PM,48.9,41.0,74,29.97,10.0,SSW,5.8,-,N/A,,Clear,200,2013-10-19 02:56:00
11:56 PM,48.0,41.0,77,29.96,10.0,South,5.8,-,N/A,,Partly Cloudy,190,2013-10-19 03:56:00